Location: Honolulu
(21.3069°N, 157.8583°W)
Time: 05:46:01
(UTC-10:00)

Tiros 1 despin weight - Pass Details

Date: 17 May 2026
Orbit: 554 x 591 km, 48.2° (Epoch: 10 June)

Event Time Altitude Azimuth Distance (km) Brightness Sun altitude
Exits shadow 03:38:49 27° 357° (N) 1,099 ? -28.0°
Drops below altitude 10° 03:41:16 10° 24° (NNE) 1,855 ? -27.6°
Sets 03:43:39 0° 33° (NNE) 2,746 ? -27.1°
